Wind_Speed
27 27 27 28 29 31 34 35 33 32 31 30 29 28 27 26 24 23 22 24 24 27 28 29 30 33 35 36 36 33 29 27 25 20 19 17 18 16 15 19 21 21 20 22 26
30 30 30 31 33 33 34 37 38 37 37 35 34 32 32 31 29 28 26 25 26 28 30 33 34 35 35 36 34 34 31 25 22 20 22 22 21 19 18 20 23 23 21 24 27
33 34 34 34 34 35 37 37 40 41 42 41 39 38 37 35 34 32 31 29 29 28 29 32 36 37 34 36 34 35 31 28 24 23 24 24 26 25 23 22 22 21 23 24 24
38 38 37 38 39 37 38 40 41 43 43 43 44 43 42 41 40 37 34 33 32 30 30 32 35 37 32 34 34 34 30 28 27 26 25 24 27 28 27 28 27 25 24 25 28
40 41 41 39 38 39 40 41 43 44 45 46 46 48 47 48 45 42 39 37 36 35 33 31 34 37 34 34 34 35 34 31 31 31 29 26 25 27 30 31 30 29 27 30 30
39 40 41 41 41 41 42 42 43 44 46 47 47 50 51 53 51 48 46 42 39 38 37 34 34 37 35 35 35 35 36 34 31 29 28 29 24 26 29 30 29 30 30 32 32
35 37 38 40 42 42 42 44 44 44 45 45 49 48 52 54 53 53 51 48 43 41 40 36 37 35 34 36 38 38 36 34 31 29 31 31 25 26 29 32 32 31 32 34 32
32 33 34 38 41 42 42 44 47 46 45 45 47 49 51 52 53 54 54 53 50 44 43 39 38 38 36 38 41 39 39 36 33 32 33 29 32 27 27 32 33 35 35 35 35
33 34 36 38 40 42 41 41 43 46 47 47 47 47 50 51 52 52 53 53 51 50 45 41 38 37 39 41 41 41 41 40 39 34 35 32 38 36 34 36 36 36 38 39 40
38 39 38 39 39 39 38 37 36 38 41 44 45 48 49 51 49 49 51 52 51 50 48 45 40 39 40 45 43 41 43 45 41 38 36 38 40 47 43 45 43 41 42 41 43
44 43 42 43 42 41 39 38 36 35 38 40 41 46 49 53 51 52 52 53 51 49 49 46 44 44 44 48 45 43 42 43 44 41 34 37 38 46 51 49 46 46 46 44 48
47 45 44 44 46 45 45 42 40 36 35 38 42 44 48 53 54 56 54 50 51 50 48 45 48 49 50 50 48 44 42 44 44 42 38 37 37 42 52 51 49 49 49 51 53
51 51 48 46 46 47 48 48 45 41 36 39 41 44 47 53 55 57 55 51 51 51 49 48 51 55 53 52 52 46 45 45 44 44 43 40 36 38 48 55 55 52 51 52 54
59 58 57 55 51 50 49 48 47 45 37 37 45 44 45 49 48 53 53 52 52 53 52 50 57 56 55 56 54 45 49 47 48 46 44 48 35 37 43 53 63 60 57 56 57
62 61 60 59 58 60 58 56 53 50 37 36 44 49 48 48 49 50 50 50 52 54 55 54 55 57 57 57 55 49 52 52 51 50 48 50 50 35 42 50 59 60 59 56 61
61 60 61 61 60 63 65 63 60 57 45 44 45 50 53 53 53 53 54 55 56 56 56 58 57 57 56 56 55 56 57 54 52 54 52 56 57 40 50 50 57 61 61 61 62
66 65 62 66 65 63 63 63 61 53 49 51 54 55 54 56 57 58 57 55 58 62 61 62 59 57 56 57 58 59 62 62 57 61 59 59 48 41 49 54 63 68 66 63 66
68 68 65 68 69 67 69 63 45 43 51 54 56 61 60 61 62 61 58 58 63 65 65 64 56 64 61 62 62 63 66 71 73 68 61 56 48 45 49 57 67 74 68 67 71
81 77 72 76 76 74 71 58 47 52 55 63 63 62 62 67 69 67 66 63 65 68 72 73 66 68 67 67 69 68 73 79 83 76 67 53 46 48 53 64 70 75 69 70 73
82 80 78 85 83 84 77 55 52 59 64 68 69 68 63 68 69 70 69 67 71 75 81 80 81 75 75 74 75 78 76 77 83 79 70 57 52 45 59 68 70 76 70 73 75
91 85 77 94 94 91 80 66 69 66 69 71 68 69 73 74 73 71 65 68 72 78 83 86 89 79 73 73 74 75 71 73 79 77 81 70 47 52 69 72 73 82 76 80 84
92 94 90 94 99 88 82 81 75 73 75 73 68 70 74 79 78 74 73 74 78 79 82 87 92 83 73 72 74 75 74 76 77 80 81 79 47 67 71 75 82 87 81 83 90
109 97 99 99 96 93 83 85 81 79 80 80 82 81 81 77 82 80 83 80 84 83 86 92 94 91 81 79 84 86 81 79 82 81 79 89 65 76 78 85 94 91 91 94 100
115 116 104 100 97 96 96 82 89 89 87 84 85 88 83 90 90 82 79 86 87 92 93 100 97 84 81 79 84 87 84 81 82 74 88 89 94 72 92 97 98 102 101 103 107
120 121 112 113 106 101 107 97 90 92 85 90 89 89 93 95 94 93 90 95 96 96 97 100 102 98 97 87 96 93 85 84 84 87 98 90 101 82 99 101 101 102 103 108 110
125 125 122 123 114 110 116 106 97 95 104 94 102 96 105 102 99 95 106 103 99 98 98 102 103 104 104 97 108 112 84 89 90 90 102 103 93 96 108 114 116 112 115 116 120
128 131 128 133 127 126 124 117 108 112 107 109 103 112 106 101 114 111 112 108 109 106 106 106 109 107 108 107 112 107 91 103 100 97 111 111 100 101 118 122 114 118 121 123 125
Wind_Direction
267 266 268 267 267 261 254 252 255 256 257 261 265 271 274 276 283 291 299 305 311 317 321 325 331 339 337 344 355 352 349 344 346 353 347 340 333 330 321 325 333 336 338 341 337
269 270 272 271 275 269 261 255 255 256 257 259 262 266 272 273 277 281 289 296 304 310 315 316 323 331 333 340 348 349 347 345 346 349 343 338 334 330 325 332 335 334 327 328 328
269 271 273 274 274 276 272 266 260 259 259 259 259 263 266 269 272 276 283 291 294 301 308 314 320 323 326 335 337 347 340 339 337 336 335 332 325 325 324 328 327 322 321 325 322
269 271 271 273 275 274 273 272 271 266 262 259 260 261 266 269 271 271 274 281 285 290 301 308 315 318 321 330 330 335 336 333 332 330 326 319 320 317 317 320 319 316 319 318 324
267 269 271 272 271 275 273 274 275 272 269 266 261 260 262 267 270 271 270 274 279 283 293 302 310 311 315 321 324 327 332 327 327 325 321 318 322 317 315 315 320 321 319 317 319
262 266 271 274 275 272 271 274 274 275 274 271 267 264 264 266 269 270 272 273 276 278 284 296 306 309 307 314 317 319 325 325 320 320 321 320 328 318 316 316 318 317 316 316 321
258 264 267 270 273 275 273 270 272 272 276 276 272 269 270 269 269 270 273 274 275 273 281 289 295 306 301 305 308 311 313 319 315 312 316 309 318 317 318 313 312 313 312 314 317
265 269 273 272 273 272 272 271 270 270 271 274 275 276 272 273 273 273 274 276 274 273 277 286 293 299 298 301 302 304 306 312 312 307 303 306 309 317 319 318 317 316 315 314 317
267 270 271 272 274 276 275 272 271 270 271 273 274 273 275 278 278 276 273 275 277 275 276 281 290 292 295 298 298 297 300 304 310 307 301 300 302 309 314 316 320 320 314 312 315
269 271 273 275 278 280 279 278 278 277 276 279 282 277 274 274 279 280 277 276 276 276 276 281 284 286 289 294 295 294 295 298 304 310 303 295 300 302 304 310 309 312 315 314 314
266 271 274 273 274 277 281 283 285 284 285 282 282 279 277 276 277 277 276 274 273 274 275 280 283 285 288 292 294 296 291 290 298 307 308 297 295 296 300 303 304 305 307 308 313
265 267 270 274 275 273 274 276 281 284 289 292 288 283 276 273 273 274 275 275 275 274 274 278 281 284 286 290 291 294 290 286 294 301 308 301 302 299 296 302 300 301 303 301 306
264 267 267 271 274 273 274 275 275 279 282 293 294 288 280 272 271 273 275 275 275 276 275 279 281 284 286 289 288 292 287 284 291 296 305 304 303 306 290 295 292 300 302 305 306
265 266 267 269 268 270 273 273 275 278 280 286 290 289 280 277 276 274 276 277 277 277 278 280 281 283 285 286 287 287 286 287 291 293 298 301 311 304 292 283 289 297 298 302 303
263 268 270 270 269 271 270 269 272 274 280 280 283 283 283 280 277 278 277 278 279 279 279 278 279 283 283 283 285 283 286 291 293 293 298 298 306 306 290 283 288 291 294 301 305
262 265 270 270 272 269 270 271 270 274 282 276 276 277 279 280 280 279 280 279 278 278 279 278 279 281 281 282 286 289 292 293 291 292 299 297 305 310 286 287 290 290 294 304 306
263 262 270 267 267 267 271 273 273 283 277 274 273 273 276 280 282 282 284 286 285 282 279 279 280 279 282 283 286 290 292 290 287 291 299 301 310 305 295 290 286 288 297 305 305
268 267 271 272 269 268 267 269 276 278 278 275 272 269 273 277 278 280 283 285 284 284 283 281 281 284 285 288 289 289 291 292 292 294 295 301 304 299 302 292 288 288 297 301 301
270 268 271 275 273 270 269 271 275 273 272 273 272 272 273 273 274 276 279 281 283 285 284 282 281 281 282 283 286 288 291 295 297 296 296 299 306 308 301 293 292 296 303 303 302
269 268 269 269 273 274 271 279 279 270 267 270 273 274 275 273 274 275 277 278 279 281 282 283 282 280 281 285 287 288 293 295 295 297 299 300 305 307 297 293 296 297 300 300 303
267 265 270 267 271 271 271 274 273 273 269 272 271 272 273 274 276 275 278 279 278 276 277 281 281 282 286 289 291 294 294 291 292 297 298 302 305 301 293 295 297 296 300 303 302
266 266 267 267 264 274 269 269 267 271 273 273 274 277 277 272 273 275 278 278 274 278 282 282 281 285 289 290 289 288 289 288 293 298 299 299 311 297 296 300 297 296 302 302 304
258 267 261 263 265 266 270 264 267 266 270 273 275 276 276 279 275 272 272 274 276 276 277 279 282 282 286 288 289 288 290 291 291 296 304 296 307 298 300 298 295 298 301 302 304
260 264 263 264 266 267 267 264 260 262 266 267 270 271 277 277 275 273 278 276 274 272 274 278 282 288 288 287 287 288 285 287 289 296 294 295 293 301 298 295 296 298 302 303 301
259 265 265 265 272 265 262 268 265 261 267 262 268 263 265 272 275 277 277 275 276 273 276 278 283 287 288 288 287 290 288 289 292 291 287 295 294 307 293 294 296 298 299 300 302
265 264 262 268 268 266 261 270 266 263 264 268 263 267 263 271 275 273 271 268 274 276 277 280 283 282 285 286 284 284 297 291 287 294 295 290 297 296 296 295 297 298 299 300 301
262 263 261 267 268 268 272 270 265 265 266 266 268 265 271 273 270 267 269 271 273 278 278 278 279 280 281 281 280 286 293 286 289 290 291 293 293 291 295 295 299 296 299 301 302
Height
10838 10840 10840 10841 10842 10841 10841 10841 10842 10841 10841 10841 10841 10839 10839 10838 10837 10836 10835 10833 10832 10830 10828 10825 10824 10822 10819 10816 10813 10809 10806 10803 10800 10798 10795 10792 10791 10790 10788 10786 10785 10783 10782 10781 10781
10834 10835 10835 10836 10836 10837 10837 10837 10836 10836 10836 10836 10836 10836 10834 10833 10832 10832 10831 10829 10828 10827 10825 10822 10820 10818 10815 10813 10810 10807 10804 10802 10799 10797 10793 10790 10787 10786 10785 10784 10782 10781 10780 10779 10777
10829 10829 10830 10830 10831 10831 10832 10832 10831 10830 10831 10831 10831 10830 10829 10829 10828 10827 10826 10825 10824 10823 10821 10819 10816 10814 10811 10808 10806 10803 10801 10799 10796 10794 10791 10787 10783 10782 10780 10779 10780 10779 10777 10774 10771
10823 10824 10824 10824 10824 10825 10824 10825 10826 10826 10825 10825 10825 10824 10824 10824 10823 10822 10822 10821 10820 10819 10818 10816 10813 10811 10809 10805 10803 10800 10797 10795 10792 10790 10788 10785 10781 10778 10775 10774 10773 10772 10770 10767 10764
10816 10817 10817 10817 10817 10818 10818 10818 10817 10818 10819 10819 10819 10818 10817 10817 10817 10816 10816 10816 10815 10815 10814 10813 10810 10806 10805 10802 10799 10796 10794 10791 10789 10785 10782 10780 10777 10773 10769 10767 10765 10763 10762 10760 10758
10808 10809 10809 10809 10809 10809 10810 10810 10810 10809 10809 10810 10813 10812 10811 10811 10809 10809 10809 10809 10810 10809 10808 10808 10805 10802 10799 10797 10794 10793 10790 10788 10786 10782 10778 10774 10774 10769 10766 10762 10761 10759 10757 10755 10753
10799 10800 10800 10800 10800 10800 10801 10801 10801 10801 10801 10801 10802 10803 10804 10802 10802 10801 10801 10801 10802 10803 10802 10802 10800 10798 10794 10791 10789 10786 10785 10783 10781 10778 10775 10769 10770 10768 10762 10759 10756 10754 10752 10749 10747
10793 10793 10792 10792 10791 10791 10791 10792 10792 10792 10792 10792 10792 10792 10793 10791 10792 10792 10793 10792 10792 10794 10794 10794 10793 10791 10788 10786 10783 10781 10777 10775 10775 10772 10769 10766 10760 10761 10758 10753 10749 10747 10743 10739 10737
10786 10785 10785 10784 10783 10782 10783 10783 10783 10782 10782 10783 10784 10783 10782 10780 10781 10781 10781 10781 10782 10783 10783 10784 10785 10783 10781 10779 10776 10773 10772 10769 10766 10765 10762 10759 10749 10750 10748 10745 10741 10739 10734 10730 10728
10779 10778 10778 10777 10777 10775 10776 10776 10776 10776 10774 10774 10775 10774 10772 10769 10768 10769 10769 10770 10771 10772 10772 10773 10774 10773 10772 10771 10770 10767 10764 10761 10760 10760 10755 10751 10747 10738 10738 10736 10732 10729 10726 10722 10718
10769 10769 10769 10768 10768 10769 10769 10769 10770 10771 10769 10767 10767 10765 10763 10759 10759 10757 10756 10758 10758 10760 10761 10762 10764 10761 10761 10760 10760 10759 10757 10753 10750 10751 10751 10744 10743 10733 10724 10725 10723 10720 10716 10712 10709
10759 10759 10760 10760 10760 10760 10758 10759 10761 10763 10763 10761 10758 10757 10752 10748 10749 10746 10745 10747 10746 10748 10750 10752 10751 10749 10749 10748 10747 10747 10747 10743 10742 10741 10742 10739 10737 10730 10715 10712 10712 10709 10707 10703 10699
10749 10748 10749 10749 10748 10748 10748 10748 10749 10753 10759 10752 10749 10746 10742 10737 10736 10735 10733 10735 10735 10736 10738 10740 10738 10734 10735 10734 10733 10734 10733 10733 10733 10730 10729 10730 10732 10724 10708 10697 10694 10695 10693 10690 10686
10736 10736 10738 10738 10738 10736 10737 10737 10738 10741 10750 10752 10738 10735 10731 10727 10729 10723 10723 10724 10724 10724 10726 10728 10722 10722 10722 10719 10718 10723 10717 10720 10720 10720 10722 10714 10729 10722 10708 10691 10678 10681 10679 10678 10674
10722 10723 10724 10724 10727 10725 10725 10726 10728 10729 10742 10741 10733 10721 10716 10716 10717 10715 10714 10714 10714 10712 10713 10714 10712 10711 10709 10705 10703 10708 10706 10706 10706 10706 10712 10706 10708 10714 10699 10687 10673 10664 10663 10666 10662
10709 10710 10711 10711 10710 10711 10711 10712 10715 10720 10731 10727 10722 10715 10708 10704 10704 10705 10704 10703 10700 10700 10700 10697 10700 10698 10696 10693 10692 10691 10690 10692 10693 10691 10701 10693 10695 10705 10682 10677 10663 10650 10649 10652 10647
10694 10696 10697 10697 10697 10695 10695 10697 10703 10715 10717 10714 10708 10704 10700 10696 10694 10691 10693 10693 10687 10682 10684 10682 10684 10684 10683 10680 10679 10676 10672 10671 10680 10678 10685 10684 10687 10683 10671 10663 10649 10636 10637 10638 10633
10678 10681 10681 10680 10681 10679 10679 10684 10701 10705 10699 10694 10691 10689 10690 10686 10681 10680 10682 10682 10674 10668 10666 10668 10678 10666 10672 10667 10666 10664 10658 10649 10652 10662 10672 10672 10676 10673 10662 10646 10633 10621 10627 10624 10618
10661 10662 10667 10656 10660 10660 10661 10677 10691 10689 10684 10676 10670 10674 10677 10672 10667 10667 10670 10673 10662 10653 10644 10646 10662 10659 10656 10654 10651 10654 10646 10638 10628 10635 10647 10659 10662 10658 10645 10624 10615 10605 10613 10607 10601
10640 10645 10651 10632 10637 10638 10645 10672 10673 10670 10662 10657 10656 10657 10661 10656 10652 10652 10655 10661 10651 10640 10626 10630 10628 10642 10642 10644 10643 10635 10636 10624 10609 10609 10620 10645 10648 10640 10622 10605 10601 10591 10596 10589 10583
10617 10624 10633 10610 10613 10617 10638 10650 10653 10650 10642 10638 10643 10642 10642 10638 10634 10637 10644 10642 10634 10625 10612 10608 10599 10621 10630 10631 10625 10619 10620 10609 10595 10598 10588 10607 10638 10622 10599 10592 10586 10570 10576 10570 10562
10591 10600 10608 10593 10586 10606 10628 10629 10630 10630 10624 10623 10624 10626 10622 10616 10617 10621 10623 10618 10608 10608 10600 10591 10576 10597 10613 10614 10609 10604 10600 10595 10585 10583 10577 10574 10618 10594 10584 10576 10561 10552 10558 10547 10538
10559 10568 10574 10574 10577 10591 10599 10605 10605 10613 10606 10605 10600 10608 10599 10602 10597 10600 10597 10602 10592 10589 10581 10568 10562 10573 10596 10598 10589 10581 10586 10583 10576 10572 10568 10542 10585 10570 10566 10553 10533 10535 10535 10527 10515
10525 10529 10542 10548 10566 10565 10569 10578 10582 10587 10587 10588 10585 10581 10583 10580 10572 10580 10586 10579 10573 10567 10560 10545 10545 10562 10568 10572 10562 10562 10569 10568 10561 10570 10549 10545 10532 10575 10529 10519 10518 10507 10509 10502 10491
10495 10495 10512 10515 10540 10537 10531 10552 10564 10565 10563 10560 10564 10566 10552 10550 10560 10560 10561 10550 10546 10547 10547 10537 10531 10539 10541 10558 10527 10530 10550 10551 10548 10546 10520 10537 10505 10544 10502 10495 10493 10489 10488 10477 10467
10468 10472 10478 10481 10497 10498 10504 10529 10537 10540 10532 10534 10540 10537 10531 10533 10536 10536 10517 10523 10530 10533 10528 10523 10519 10515 10515 10531 10504 10494 10553 10527 10518 10521 10501 10496 10509 10506 10474 10465 10467 10462 10450 10447 10438
10452 10441 10436 10444 10456 10460 10480 10497 10506 10499 10506 10511 10509 10508 10511 10526 10495 10492 10491 10503 10505 10505 10511 10503 10498 10492 10484 10497 10471 10483 10530 10494 10495 10500 10468 10472 10488 10477 10458 10444 10448 10432 10423 10416 10409